Time,TemperatureF,DewpointF,PressureIn,WindDirection,WindDirectionDegrees,WindSpeedMPH,WindSpeedGustMPH,Humidity,HourlyPrecipIn,Conditions,Clouds,dailyrainin,SoftwareType,DateUTC
2013-05-06 00:00:00,56.0,45.6,29.75,SE,135,0.0,1.0,68,0.00,,,0.00,LWC V2.11 B50,2013-05-06 07:00:00,
2013-05-06 00:05:00,58.5,46.4,29.72,SE,135,0.0,1.0,64,0.00,,,0.00,WeatherCatV1.15B25,2013-05-06 07:05:00,
2013-05-06 00:10:00,54.3,46.5,29.76,SE,135,0.0,0.0,75,0.00,,,0.00,LWC V2.11 B50,2013-05-06 07:10:00,
2013-05-06 00:15:00,58.5,46.4,29.72,SE,135,0.0,1.0,64,0.00,,,0.00,WeatherCatV1.15B25,2013-05-06 07:15:00,
2013-05-06 00:20:00,54.3,46.5,29.76,SE,135,0.0,0.0,75,0.00,,,0.00,LWC V2.11 B50,2013-05-06 07:20:00,
2013-05-06 00:25:00,58.5,46.4,29.72,SE,135,0.0,1.0,64,0.00,,,0.00,WeatherCatV1.15B25,2013-05-06 07:25:00,
2013-05-06 00:30:00,54.3,46.5,29.76,SE,135,0.0,0.0,75,0.00,,,0.00,LWC V2.11 B50,2013-05-06 07:30:00,
2013-05-06 00:35:00,57.1,46.2,29.74,SE,135,0.0,1.0,67,0.00,,,0.00,WeatherCatV1.15B25,2013-05-06 07:35:00,
2013-05-06 00:40:00,54.3,46.5,29.76,SE,135,0.0,0.0,75,0.00,,,0.00,LWC V2.11 B50,2013-05-06 07:40:00,
2013-05-06 00:45:00,57.1,46.2,29.74,SE,135,0.0,1.0,67,0.00,,,0.00,WeatherCatV1.15B25,2013-05-06 07:45:00,
2013-05-06 00:50:00,54.3,46.5,29.76,SE,135,0.0,0.0,75,0.00,,,0.00,LWC V2.11 B50,2013-05-06 07:50:00,
2013-05-06 00:55:00,57.1,46.2,29.74,SE,135,0.0,1.0,67,0.00,,,0.00,WeatherCatV1.15B25,2013-05-06 07:55:00,
2013-05-06 01:00:00,54.3,46.5,29.76,SE,135,0.0,0.0,75,0.00,,,0.00,LWC V2.11 B50,2013-05-06 08:00:00,
2013-05-06 01:05:00,57.1,46.2,29.74,SE,135,0.0,1.0,67,0.00,,,0.00,WeatherCatV1.15B25,2013-05-06 08:05:00,
2013-05-06 01:10:00,54.4,45.9,29.77,ESE,112,0.0,1.0,73,0.00,,,0.00,LWC V2.11 B50,2013-05-06 08:10:00,
2013-05-06 01:15:00,57.1,46.2,29.74,SE,135,0.0,1.0,67,0.00,,,0.00,WeatherCatV1.15B25,2013-05-06 08:15:00,
2013-05-06 01:20:00,54.4,45.9,29.77,ESE,112,0.0,1.0,73,0.00,,,0.00,LWC V2.11 B50,2013-05-06 08:20:00,
2013-05-06 01:25:00,57.1,46.2,29.74,SE,135,0.0,1.0,67,0.00,,,0.00,WeatherCatV1.15B25,2013-05-06 08:25:00,
2013-05-06 01:30:00,54.4,45.9,29.77,ESE,112,0.0,1.0,73,0.00,,,0.00,LWC V2.11 B50,2013-05-06 08:30:00,
2013-05-06 01:35:00,57.1,46.2,29.74,SE,135,0.0,1.0,67,0.00,,,0.00,WeatherCatV1.15B25,2013-05-06 08:35:00,
2013-05-06 01:40:00,54.4,45.9,29.77,ESE,112,0.0,1.0,73,0.00,,,0.00,LWC V2.11 B50,2013-05-06 08:40:00,
2013-05-06 01:45:00,56.0,45.6,29.75,SE,135,0.0,1.0,68,0.00,,,0.00,WeatherCatV1.15B25,2013-05-06 08:45:00,
2013-05-06 01:50:00,54.4,45.9,29.77,ESE,112,0.0,1.0,73,0.00,,,0.00,LWC V2.11 B50,2013-05-06 08:50:00,
2013-05-06 01:55:00,56.0,45.6,29.75,SE,135,0.0,1.0,68,0.00,,,0.00,WeatherCatV1.15B25,2013-05-06 08:55:00,
2013-05-06 02:00:00,54.4,45.9,29.77,ESE,112,0.0,1.0,73,0.00,,,0.00,LWC V2.11 B50,2013-05-06 09:00:00,
2013-05-06 02:05:00,56.0,45.6,29.75,SE,135,0.0,1.0,68,0.00,,,0.00,WeatherCatV1.15B25,2013-05-06 09:05:00,
2013-05-06 02:10:00,53.1,48.1,29.77,ESE,112,0.0,0.0,83,0.00,,,0.00,LWC V2.11 B50,2013-05-06 09:10:00,
2013-05-06 02:15:00,56.0,45.6,29.75,SE,135,0.0,1.0,68,0.00,,,0.00,WeatherCatV1.15B25,2013-05-06 09:15:00,
2013-05-06 02:20:00,53.1,48.1,29.77,ESE,112,0.0,0.0,83,0.00,,,0.00,LWC V2.11 B50,2013-05-06 09:20:00,
2013-05-06 02:25:00,56.0,45.6,29.75,SE,135,0.0,1.0,68,0.00,,,0.00,WeatherCatV1.15B25,2013-05-06 09:25:00,
2013-05-06 02:30:00,53.1,48.1,29.77,ESE,112,0.0,0.0,83,0.00,,,0.00,LWC V2.11 B50,2013-05-06 09:30:00,
2013-05-06 02:35:00,56.0,45.6,29.75,SE,135,0.0,1.0,68,0.00,,,0.00,WeatherCatV1.15B25,2013-05-06 09:35:00,
2013-05-06 02:40:00,53.1,48.1,29.77,ESE,112,0.0,0.0,83,0.00,,,0.00,LWC V2.11 B50,2013-05-06 09:40:00,
2013-05-06 02:45:00,54.3,46.5,29.76,SE,135,0.0,0.0,75,0.00,,,0.00,WeatherCatV1.15B25,2013-05-06 09:45:00,
2013-05-06 02:50:00,53.1,48.1,29.77,ESE,112,0.0,0.0,83,0.00,,,0.00,LWC V2.11 B50,2013-05-06 09:50:00,
2013-05-06 02:55:00,54.3,46.5,29.76,SE,135,0.0,0.0,75,0.00,,,0.00,WeatherCatV1.15B25,2013-05-06 09:55:00,
2013-05-06 03:00:00,53.1,48.1,29.77,ESE,112,0.0,0.0,83,0.00,,,0.00,LWC V2.11 B50,2013-05-06 10:00:00,
2013-05-06 03:05:00,54.3,46.5,29.76,SE,135,0.0,0.0,75,0.00,,,0.00,WeatherCatV1.15B25,2013-05-06 10:05:00,
2013-05-06 03:10:00,52.2,49.4,29.78,ESE,112,0.0,0.0,90,0.00,,,0.00,LWC V2.11 B50,2013-05-06 10:10:00,
2013-05-06 03:15:00,54.3,46.5,29.76,SE,135,0.0,0.0,75,0.00,,,0.00,WeatherCatV1.15B25,2013-05-06 10:15:00,
2013-05-06 03:20:00,52.2,49.4,29.78,ESE,112,0.0,0.0,90,0.00,,,0.00,LWC V2.11 B50,2013-05-06 10:20:00,
2013-05-06 03:25:00,54.3,46.5,29.76,SE,135,0.0,0.0,75,0.00,,,0.00,WeatherCatV1.15B25,2013-05-06 10:25:00,
2013-05-06 03:30:00,52.2,49.4,29.78,ESE,112,0.0,0.0,90,0.00,,,0.00,LWC V2.11 B50,2013-05-06 10:30:00,
2013-05-06 03:35:00,54.3,46.5,29.76,SE,135,0.0,0.0,75,0.00,,,0.00,WeatherCatV1.15B25,2013-05-06 10:35:00,
2013-05-06 03:40:00,52.2,49.4,29.78,ESE,112,0.0,0.0,90,0.00,,,0.00,LWC V2.11 B50,2013-05-06 10:40:00,
2013-05-06 03:45:00,54.4,45.9,29.77,ESE,112,0.0,1.0,73,0.00,,,0.00,WeatherCatV1.15B25,2013-05-06 10:45:00,
2013-05-06 03:50:00,52.2,49.4,29.78,ESE,112,0.0,0.0,90,0.00,,,0.00,LWC V2.11 B50,2013-05-06 10:50:00,
2013-05-06 03:55:00,54.4,45.9,29.77,ESE,112,0.0,1.0,73,0.00,,,0.00,WeatherCatV1.15B25,2013-05-06 10:55:00,
2013-05-06 04:00:00,52.5,48.7,29.79,ESE,112,0.0,1.0,87,0.08,,,0.00,LWC V2.11 B50,2013-05-06 11:00:00,
2013-05-06 04:05:00,54.4,45.9,29.77,ESE,112,0.0,1.0,73,0.00,,,0.00,WeatherCatV1.15B25,2013-05-06 11:05:00,
2013-05-06 04:10:00,52.5,48.7,29.79,ESE,112,0.0,1.0,87,0.08,,,0.00,LWC V2.11 B50,2013-05-06 11:10:00,
2013-05-06 04:15:00,54.4,45.9,29.77,ESE,112,0.0,1.0,73,0.00,,,0.00,WeatherCatV1.15B25,2013-05-06 11:15:00,
2013-05-06 04:20:00,52.5,48.7,29.79,ESE,112,0.0,1.0,87,0.08,,,0.00,LWC V2.11 B50,2013-05-06 11:20:00,
2013-05-06 04:25:00,54.4,45.9,29.77,ESE,112,0.0,1.0,73,0.00,,,0.00,WeatherCatV1.15B25,2013-05-06 11:25:00,
2013-05-06 04:30:00,52.5,48.7,29.79,ESE,112,0.0,1.0,87,0.08,,,0.00,LWC V2.11 B50,2013-05-06 11:30:00,
2013-05-06 04:35:00,54.4,45.9,29.77,ESE,112,0.0,1.0,73,0.00,,,0.00,WeatherCatV1.15B25,2013-05-06 11:35:00,
2013-05-06 04:40:00,52.5,48.7,29.79,ESE,112,0.0,1.0,87,0.08,,,0.00,LWC V2.11 B50,2013-05-06 11:40:00,
2013-05-06 04:45:00,53.1,48.1,29.77,ESE,112,0.0,0.0,83,0.00,,,0.00,WeatherCatV1.15B25,2013-05-06 11:45:00,
2013-05-06 04:50:00,52.5,48.7,29.79,ESE,112,0.0,1.0,87,0.08,,,0.00,LWC V2.11 B50,2013-05-06 11:50:00,
2013-05-06 04:55:00,53.1,48.1,29.77,ESE,112,0.0,0.0,83,0.00,,,0.00,WeatherCatV1.15B25,2013-05-06 11:55:00,
2013-05-06 05:00:00,52.5,48.7,29.79,ESE,112,0.0,1.0,87,0.08,,,0.00,LWC V2.11 B50,2013-05-06 12:00:00,
2013-05-06 05:05:00,53.1,48.1,29.77,ESE,112,0.0,0.0,83,0.00,,,0.00,WeatherCatV1.15B25,2013-05-06 12:05:00,
2013-05-06 05:10:00,50.9,49.0,29.80,ESE,112,0.0,0.0,93,0.08,,,0.00,LWC V2.11 B50,2013-05-06 12:10:00,
2013-05-06 05:15:00,53.1,48.1,29.77,ESE,112,0.0,0.0,83,0.00,,,0.00,WeatherCatV1.15B25,2013-05-06 12:15:00,
2013-05-06 05:20:00,50.9,49.0,29.80,ESE,112,0.0,0.0,93,0.08,,,0.00,LWC V2.11 B50,2013-05-06 12:20:00,
2013-05-06 05:25:00,53.1,48.1,29.77,ESE,112,0.0,0.0,83,0.00,,,0.00,WeatherCatV1.15B25,2013-05-06 12:25:00,
2013-05-06 05:30:00,50.9,49.0,29.80,ESE,112,0.0,0.0,93,0.08,,,0.00,LWC V2.11 B50,2013-05-06 12:30:00,
2013-05-06 05:35:00,53.1,48.1,29.77,ESE,112,0.0,0.0,83,0.00,,,0.00,WeatherCatV1.15B25,2013-05-06 12:35:00,
2013-05-06 05:40:00,50.9,49.0,29.80,ESE,112,0.0,0.0,93,0.08,,,0.00,LWC V2.11 B50,2013-05-06 12:40:00,
2013-05-06 05:45:00,52.2,49.4,29.78,ESE,112,0.0,0.0,90,0.00,,,0.00,WeatherCatV1.15B25,2013-05-06 12:45:00,
2013-05-06 05:50:00,50.9,49.0,29.80,ESE,112,0.0,0.0,93,0.08,,,0.00,LWC V2.11 B50,2013-05-06 12:50:00,
2013-05-06 05:55:00,52.2,49.4,29.78,ESE,112,0.0,0.0,90,0.00,,,0.00,WeatherCatV1.15B25,2013-05-06 12:55:00,
2013-05-06 06:00:00,50.9,49.0,29.80,ESE,112,0.0,0.0,93,0.08,,,0.00,LWC V2.11 B50,2013-05-06 13:00:00,
2013-05-06 06:05:00,52.2,49.4,29.78,ESE,112,0.0,0.0,90,0.00,,,0.00,WeatherCatV1.15B25,2013-05-06 13:05:00,
2013-05-06 06:10:00,50.4,48.7,29.81,ESE,112,0.0,0.0,94,0.11,,,0.00,LWC V2.11 B50,2013-05-06 13:10:00,
2013-05-06 06:15:00,52.2,49.4,29.78,ESE,112,0.0,0.0,90,0.00,,,0.00,WeatherCatV1.15B25,2013-05-06 13:15:00,
2013-05-06 06:20:00,50.4,48.7,29.81,ESE,112,0.0,0.0,94,0.11,,,0.00,LWC V2.11 B50,2013-05-06 13:20:00,
2013-05-06 06:25:00,52.2,49.4,29.78,ESE,112,0.0,0.0,90,0.00,,,0.00,WeatherCatV1.15B25,2013-05-06 13:25:00,
2013-05-06 06:30:00,50.4,48.7,29.81,ESE,112,0.0,0.0,94,0.11,,,0.00,LWC V2.11 B50,2013-05-06 13:30:00,
2013-05-06 06:35:00,52.2,49.4,29.78,ESE,112,0.0,0.0,90,0.00,,,0.00,WeatherCatV1.15B25,2013-05-06 13:35:00,
2013-05-06 06:40:00,50.4,48.7,29.81,ESE,112,0.0,0.0,94,0.11,,,0.00,LWC V2.11 B50,2013-05-06 13:40:00,
2013-05-06 06:45:00,52.5,48.7,29.79,ESE,112,0.0,1.0,87,0.08,,,0.00,WeatherCatV1.15B25,2013-05-06 13:45:00,
2013-05-06 06:50:00,50.4,48.7,29.81,ESE,112,0.0,0.0,94,0.11,,,0.00,LWC V2.11 B50,2013-05-06 13:50:00,
2013-05-06 06:55:00,52.5,48.7,29.79,ESE,112,0.0,1.0,87,0.08,,,0.00,WeatherCatV1.15B25,2013-05-06 13:55:00,
2013-05-06 07:00:00,50.4,48.7,29.81,ESE,112,0.0,0.0,94,0.11,,,0.00,LWC V2.11 B50,2013-05-06 14:00:00,
2013-05-06 07:05:00,52.5,48.7,29.79,ESE,112,0.0,1.0,87,0.08,,,0.00,WeatherCatV1.15B25,2013-05-06 14:05:00,
2013-05-06 07:10:00,50.1,48.7,29.82,ESE,112,0.0,1.0,95,0.25,,,0.00,LWC V2.11 B50,2013-05-06 14:10:00,
2013-05-06 07:15:00,52.5,48.7,29.79,ESE,112,0.0,1.0,87,0.08,,,0.00,WeatherCatV1.15B25,2013-05-06 14:15:00,
2013-05-06 07:20:00,50.1,48.7,29.82,ESE,112,0.0,1.0,95,0.25,,,0.00,LWC V2.11 B50,2013-05-06 14:20:00,
2013-05-06 07:25:00,52.5,48.7,29.79,ESE,112,0.0,1.0,87,0.08,,,0.00,WeatherCatV1.15B25,2013-05-06 14:25:00,
2013-05-06 07:30:00,50.1,48.7,29.82,ESE,112,0.0,1.0,95,0.25,,,0.00,LWC V2.11 B50,2013-05-06 14:30:00,
2013-05-06 07:35:00,52.5,48.7,29.79,ESE,112,0.0,1.0,87,0.08,,,0.00,WeatherCatV1.15B25,2013-05-06 14:35:00,
2013-05-06 07:40:00,50.1,48.7,29.82,ESE,112,0.0,1.0,95,0.25,,,0.00,LWC V2.11 B50,2013-05-06 14:40:00,
2013-05-06 07:45:00,50.9,49.0,29.80,ESE,112,0.0,0.0,93,0.08,,,0.00,WeatherCatV1.15B25,2013-05-06 14:45:00,
2013-05-06 07:50:00,50.1,48.7,29.82,ESE,112,0.0,1.0,95,0.25,,,0.00,LWC V2.11 B50,2013-05-06 14:50:00,
2013-05-06 07:55:00,50.9,49.0,29.80,ESE,112,0.0,0.0,93,0.08,,,0.00,WeatherCatV1.15B25,2013-05-06 14:55:00,
2013-05-06 08:00:00,50.1,48.7,29.82,ESE,112,0.0,1.0,95,0.25,,,0.00,LWC V2.11 B50,2013-05-06 15:00:00,
2013-05-06 08:05:00,50.9,49.0,29.80,ESE,112,0.0,0.0,93,0.08,,,0.00,WeatherCatV1.15B25,2013-05-06 15:05:00,
2013-05-06 08:10:00,50.4,49.3,29.83,SW,225,0.0,1.0,96,0.08,,,0.00,LWC V2.11 B50,2013-05-06 15:10:00,
2013-05-06 08:15:00,50.9,49.0,29.80,ESE,112,0.0,0.0,93,0.08,,,0.00,WeatherCatV1.15B25,2013-05-06 15:15:00,
2013-05-06 08:20:00,50.4,49.3,29.83,SW,225,0.0,1.0,96,0.08,,,0.00,LWC V2.11 B50,2013-05-06 15:20:00,
2013-05-06 08:25:00,50.9,49.0,29.80,ESE,112,0.0,0.0,93,0.08,,,0.00,WeatherCatV1.15B25,2013-05-06 15:25:00,
2013-05-06 08:30:00,50.4,49.3,29.83,SW,225,0.0,1.0,96,0.08,,,0.00,LWC V2.11 B50,2013-05-06 15:30:00,
2013-05-06 08:35:00,50.9,49.0,29.80,ESE,112,0.0,0.0,93,0.08,,,0.00,WeatherCatV1.15B25,2013-05-06 15:35:00,
2013-05-06 08:40:00,50.4,49.3,29.83,SW,225,0.0,1.0,96,0.08,,,0.00,LWC V2.11 B50,2013-05-06 15:40:00,
2013-05-06 08:45:00,50.4,48.7,29.81,ESE,112,0.0,0.0,94,0.11,,,0.00,WeatherCatV1.15B25,2013-05-06 15:45:00,
2013-05-06 08:50:00,50.4,49.3,29.83,SW,225,0.0,1.0,96,0.08,,,0.00,LWC V2.11 B50,2013-05-06 15:50:00,
2013-05-06 08:55:00,50.4,48.7,29.81,ESE,112,0.0,0.0,94,0.11,,,0.00,WeatherCatV1.15B25,2013-05-06 15:55:00,
2013-05-06 09:00:00,50.4,49.3,29.83,SW,225,0.0,1.0,96,0.08,,,0.00,LWC V2.11 B50,2013-05-06 16:00:00,
2013-05-06 09:05:00,50.4,48.7,29.81,ESE,112,0.0,0.0,94,0.11,,,0.00,WeatherCatV1.15B25,2013-05-06 16:05:00,
2013-05-06 09:10:00,51.0,49.9,29.85,WSW,248,0.0,1.0,96,0.08,,,0.00,LWC V2.11 B50,2013-05-06 16:10:00,
2013-05-06 09:15:00,50.4,48.7,29.81,ESE,112,0.0,0.0,94,0.11,,,0.00,WeatherCatV1.15B25,2013-05-06 16:15:00,
2013-05-06 09:20:00,51.0,49.9,29.85,WSW,248,0.0,1.0,96,0.08,,,0.00,LWC V2.11 B50,2013-05-06 16:20:00,
2013-05-06 09:25:00,50.4,48.7,29.81,ESE,112,0.0,0.0,94,0.11,,,0.00,WeatherCatV1.15B25,2013-05-06 16:25:00,
2013-05-06 09:30:00,51.0,49.9,29.85,WSW,248,0.0,1.0,96,0.08,,,0.00,LWC V2.11 B50,2013-05-06 16:30:00,
2013-05-06 09:35:00,50.4,48.7,29.81,ESE,112,0.0,0.0,94,0.11,,,0.00,WeatherCatV1.15B25,2013-05-06 16:35:00,
2013-05-06 09:40:00,51.0,49.9,29.85,WSW,248,0.0,1.0,96,0.08,,,0.00,LWC V2.11 B50,2013-05-06 16:40:00,
2013-05-06 09:45:00,50.1,48.7,29.82,ESE,112,0.0,1.0,95,0.25,,,0.00,WeatherCatV1.15B25,2013-05-06 16:45:00,
2013-05-06 09:50:00,51.0,49.9,29.85,WSW,248,0.0,1.0,96,0.08,,,0.00,LWC V2.11 B50,2013-05-06 16:50:00,
2013-05-06 09:55:00,50.1,48.7,29.82,ESE,112,0.0,1.0,95,0.25,,,0.00,WeatherCatV1.15B25,2013-05-06 16:55:00,
2013-05-06 10:00:00,51.0,49.9,29.85,WSW,248,0.0,1.0,96,0.08,,,0.00,LWC V2.11 B50,2013-05-06 17:00:00,
2013-05-06 10:05:00,50.1,48.7,29.82,ESE,112,0.0,1.0,95,0.25,,,0.00,WeatherCatV1.15B25,2013-05-06 17:05:00,
2013-05-06 10:10:00,51.3,50.2,29.86,WSW,248,0.0,1.0,96,0.09,,,0.00,LWC V2.11 B50,2013-05-06 17:10:00,
2013-05-06 10:15:00,50.1,48.7,29.82,ESE,112,0.0,1.0,95,0.25,,,0.00,WeatherCatV1.15B25,2013-05-06 17:15:00,
2013-05-06 10:20:00,51.3,50.2,29.86,WSW,248,0.0,1.0,96,0.09,,,0.00,LWC V2.11 B50,2013-05-06 17:20:00,
2013-05-06 10:25:00,50.1,48.7,29.82,ESE,112,0.0,1.0,95,0.25,,,0.00,WeatherCatV1.15B25,2013-05-06 17:25:00,
2013-05-06 10:30:00,51.3,50.2,29.86,WSW,248,0.0,1.0,96,0.09,,,0.00,LWC V2.11 B50,2013-05-06 17:30:00,
2013-05-06 10:35:00,50.1,48.7,29.82,ESE,112,0.0,1.0,95,0.25,,,0.00,WeatherCatV1.15B25,2013-05-06 17:35:00,
2013-05-06 10:40:00,51.3,50.2,29.86,WSW,248,0.0,1.0,96,0.09,,,0.00,LWC V2.11 B50,2013-05-06 17:40:00,
2013-05-06 10:45:00,50.4,49.3,29.83,SW,225,0.0,1.0,96,0.08,,,0.00,WeatherCatV1.15B25,2013-05-06 17:45:00,
2013-05-06 10:50:00,51.3,50.2,29.86,WSW,248,0.0,1.0,96,0.09,,,0.00,LWC V2.11 B50,2013-05-06 17:50:00,
2013-05-06 10:55:00,50.4,49.3,29.83,SW,225,0.0,1.0,96,0.08,,,0.00,WeatherCatV1.15B25,2013-05-06 17:55:00,
2013-05-06 11:00:00,51.3,50.2,29.86,WSW,248,0.0,1.0,96,0.09,,,0.00,LWC V2.11 B50,2013-05-06 18:00:00,
2013-05-06 11:05:00,50.4,49.3,29.83,SW,225,0.0,1.0,96,0.08,,,0.00,WeatherCatV1.15B25,2013-05-06 18:05:00,
2013-05-06 11:10:00,53.7,52.0,29.88,WSW,248,0.0,1.0,94,0.10,,,0.00,LWC V2.11 B50,2013-05-06 18:10:00,
2013-05-06 11:15:00,50.4,49.3,29.83,SW,225,0.0,1.0,96,0.08,,,0.00,WeatherCatV1.15B25,2013-05-06 18:15:00,
2013-05-06 11:20:00,53.7,52.0,29.88,WSW,248,0.0,1.0,94,0.10,,,0.00,LWC V2.11 B50,2013-05-06 18:20:00,
2013-05-06 11:25:00,50.4,49.3,29.83,SW,225,0.0,1.0,96,0.08,,,0.00,WeatherCatV1.15B25,2013-05-06 18:25:00,
2013-05-06 11:30:00,53.7,52.0,29.88,WSW,248,0.0,1.0,94,0.10,,,0.00,LWC V2.11 B50,2013-05-06 18:30:00,
2013-05-06 11:35:00,50.4,49.3,29.83,SW,225,0.0,1.0,96,0.08,,,0.00,WeatherCatV1.15B25,2013-05-06 18:35:00,
2013-05-06 11:40:00,53.7,52.0,29.88,WSW,248,0.0,1.0,94,0.10,,,0.00,LWC V2.11 B50,2013-05-06 18:40:00,
2013-05-06 11:45:00,51.0,49.9,29.85,WSW,248,0.0,1.0,96,0.08,,,0.00,WeatherCatV1.15B25,2013-05-06 18:45:00,
2013-05-06 11:50:00,53.7,52.0,29.88,WSW,248,0.0,1.0,94,0.10,,,0.00,LWC V2.11 B50,2013-05-06 18:50:00,
2013-05-06 11:55:00,51.0,49.9,29.85,WSW,248,0.0,1.0,96,0.08,,,0.00,WeatherCatV1.15B25,2013-05-06 18:55:00,
2013-05-06 12:00:00,53.7,52.0,29.88,WSW,248,0.0,1.0,94,0.10,,,0.00,LWC V2.11 B50,2013-05-06 19:00:00,
2013-05-06 12:05:00,51.0,49.9,29.85,WSW,248,0.0,1.0,96,0.08,,,0.00,WeatherCatV1.15B25,2013-05-06 19:05:00,
2013-05-06 12:10:00,55.4,52.2,29.87,WNW,292,0.0,1.0,89,0.00,,,0.00,LWC V2.11 B50,2013-05-06 19:10:00,
2013-05-06 12:15:00,51.0,49.9,29.85,WSW,248,0.0,1.0,96,0.08,,,0.00,WeatherCatV1.15B25,2013-05-06 19:15:00,
2013-05-06 12:20:00,55.4,52.2,29.87,WNW,292,0.0,1.0,89,0.00,,,0.00,LWC V2.11 B50,2013-05-06 19:20:00,
2013-05-06 12:25:00,51.0,49.9,29.85,WSW,248,0.0,1.0,96,0.08,,,0.00,WeatherCatV1.15B25,2013-05-06 19:25:00,
2013-05-06 12:30:00,55.4,52.2,29.87,WNW,292,0.0,1.0,89,0.00,,,0.00,LWC V2.11 B50,2013-05-06 19:30:00,
2013-05-06 12:35:00,51.0,49.9,29.85,WSW,248,0.0,1.0,96,0.08,,,0.00,WeatherCatV1.15B25,2013-05-06 19:35:00,
2013-05-06 12:40:00,55.4,52.2,29.87,WNW,292,0.0,1.0,89,0.00,,,0.00,LWC V2.11 B50,2013-05-06 19:40:00,
2013-05-06 12:45:00,51.3,50.2,29.86,WSW,248,0.0,1.0,96,0.09,,,0.00,WeatherCatV1.15B25,2013-05-06 19:45:00,
2013-05-06 12:50:00,55.4,52.2,29.87,WNW,292,0.0,1.0,89,0.00,,,0.00,LWC V2.11 B50,2013-05-06 19:50:00,
2013-05-06 12:55:00,51.3,50.2,29.86,WSW,248,0.0,1.0,96,0.09,,,0.00,WeatherCatV1.15B25,2013-05-06 19:55:00,
2013-05-06 13:00:00,55.4,52.2,29.87,WNW,292,0.0,1.0,89,0.00,,,0.00,LWC V2.11 B50,2013-05-06 20:00:00,
2013-05-06 13:05:00,51.3,50.2,29.86,WSW,248,0.0,1.0,96,0.09,,,0.00,WeatherCatV1.15B25,2013-05-06 20:05:00,
2013-05-06 13:10:00,59.7,48.3,29.86,West,270,0.0,2.0,66,0.00,,,0.00,LWC V2.11 B50,2013-05-06 20:10:00,
2013-05-06 13:15:00,51.3,50.2,29.86,WSW,248,0.0,1.0,96,0.09,,,0.00,WeatherCatV1.15B25,2013-05-06 20:15:00,
2013-05-06 13:20:00,59.7,48.3,29.86,West,270,0.0,2.0,66,0.00,,,0.00,LWC V2.11 B50,2013-05-06 20:20:00,
2013-05-06 13:25:00,51.3,50.2,29.86,WSW,248,0.0,1.0,96,0.09,,,0.00,WeatherCatV1.15B25,2013-05-06 20:25:00,
2013-05-06 13:30:00,59.7,48.3,29.86,West,270,0.0,2.0,66,0.00,,,0.00,LWC V2.11 B50,2013-05-06 20:30:00,
2013-05-06 13:35:00,51.3,50.2,29.86,WSW,248,0.0,1.0,96,0.09,,,0.00,WeatherCatV1.15B25,2013-05-06 20:35:00,
2013-05-06 13:40:00,59.7,48.3,29.86,West,270,0.0,2.0,66,0.00,,,0.00,LWC V2.11 B50,2013-05-06 20:40:00,
2013-05-06 13:45:00,53.7,52.0,29.88,WSW,248,0.0,1.0,94,0.10,,,0.00,WeatherCatV1.15B25,2013-05-06 20:45:00,
2013-05-06 13:50:00,59.7,48.3,29.86,West,270,0.0,2.0,66,0.00,,,0.00,LWC V2.11 B50,2013-05-06 20:50:00,
2013-05-06 13:55:00,53.7,52.0,29.88,WSW,248,0.0,1.0,94,0.10,,,0.00,WeatherCatV1.15B25,2013-05-06 20:55:00,
2013-05-06 14:00:00,59.7,48.3,29.86,West,270,0.0,2.0,66,0.00,,,0.00,LWC V2.11 B50,2013-05-06 21:00:00,
2013-05-06 14:05:00,53.7,52.0,29.88,WSW,248,0.0,1.0,94,0.10,,,0.00,WeatherCatV1.15B25,2013-05-06 21:05:00,
2013-05-06 14:10:00,60.3,47.6,29.86,West,270,1.0,3.0,63,0.00,,,0.00,LWC V2.11 B50,2013-05-06 21:10:00,
2013-05-06 14:15:00,53.7,52.0,29.88,WSW,248,0.0,1.0,94,0.10,,,0.00,WeatherCatV1.15B25,2013-05-06 21:15:00,
2013-05-06 14:20:00,60.3,47.6,29.86,West,270,1.0,3.0,63,0.00,,,0.00,LWC V2.11 B50,2013-05-06 21:20:00,
2013-05-06 14:25:00,53.7,52.0,29.88,WSW,248,0.0,1.0,94,0.10,,,0.00,WeatherCatV1.15B25,2013-05-06 21:25:00,
2013-05-06 14:30:00,60.3,47.6,29.86,West,270,1.0,3.0,63,0.00,,,0.00,LWC V2.11 B50,2013-05-06 21:30:00,
2013-05-06 14:35:00,53.7,52.0,29.88,WSW,248,0.0,1.0,94,0.10,,,0.00,WeatherCatV1.15B25,2013-05-06 21:35:00,
2013-05-06 14:40:00,60.3,47.6,29.86,West,270,1.0,3.0,63,0.00,,,0.00,LWC V2.11 B50,2013-05-06 21:40:00,
2013-05-06 14:45:00,55.4,52.2,29.87,WNW,292,0.0,1.0,89,0.00,,,0.00,WeatherCatV1.15B25,2013-05-06 21:45:00,
2013-05-06 14:50:00,60.3,47.6,29.86,West,270,1.0,3.0,63,0.00,,,0.00,LWC V2.11 B50,2013-05-06 21:50:00,
2013-05-06 14:55:00,55.4,52.2,29.87,WNW,292,0.0,1.0,89,0.00,,,0.00,WeatherCatV1.15B25,2013-05-06 21:55:00,
2013-05-06 15:00:00,60.3,47.6,29.86,West,270,1.0,3.0,63,0.00,,,0.00,LWC V2.11 B50,2013-05-06 22:00:00,
2013-05-06 15:05:00,55.4,52.2,29.87,WNW,292,0.0,1.0,89,0.00,,,0.00,WeatherCatV1.15B25,2013-05-06 22:05:00,
2013-05-06 15:10:00,60.8,47.7,29.86,West,270,1.0,4.0,62,0.00,,,0.00,LWC V2.11 B50,2013-05-06 22:10:00,
2013-05-06 15:15:00,55.4,52.2,29.87,WNW,292,0.0,1.0,89,0.00,,,0.00,WeatherCatV1.15B25,2013-05-06 22:15:00,
2013-05-06 15:20:00,60.8,47.7,29.86,West,270,1.0,4.0,62,0.00,,,0.00,LWC V2.11 B50,2013-05-06 22:20:00,
2013-05-06 15:25:00,55.4,52.2,29.87,WNW,292,0.0,1.0,89,0.00,,,0.00,WeatherCatV1.15B25,2013-05-06 22:25:00,
2013-05-06 15:30:00,60.8,47.7,29.86,West,270,1.0,4.0,62,0.00,,,0.00,LWC V2.11 B50,2013-05-06 22:30:00,
2013-05-06 15:35:00,55.4,52.2,29.87,WNW,292,0.0,1.0,89,0.00,,,0.00,WeatherCatV1.15B25,2013-05-06 22:35:00,
2013-05-06 15:40:00,60.8,47.7,29.86,West,270,1.0,4.0,62,0.00,,,0.00,LWC V2.11 B50,2013-05-06 22:40:00,
2013-05-06 15:45:00,59.7,48.3,29.86,West,270,0.0,2.0,66,0.00,,,0.00,WeatherCatV1.15B25,2013-05-06 22:45:00,
2013-05-06 15:50:00,60.8,47.7,29.86,West,270,1.0,4.0,62,0.00,,,0.00,LWC V2.11 B50,2013-05-06 22:50:00,
2013-05-06 15:55:00,59.7,48.3,29.86,West,270,0.0,2.0,66,0.00,,,0.00,WeatherCatV1.15B25,2013-05-06 22:55:00,
2013-05-06 16:00:00,62.0,47.5,29.84,WSW,248,0.0,2.0,59,0.00,,,0.00,LWC V2.11 B50,2013-05-06 23:00:00,
2013-05-06 16:05:00,59.7,48.3,29.86,West,270,0.0,2.0,66,0.00,,,0.00,WeatherCatV1.15B25,2013-05-06 23:05:00,
2013-05-06 16:10:00,62.0,47.5,29.84,WSW,248,0.0,2.0,59,0.00,,,0.00,LWC V2.11 B50,2013-05-06 23:10:00,
2013-05-06 16:15:00,59.7,48.3,29.86,West,270,0.0,2.0,66,0.00,,,0.00,WeatherCatV1.15B25,2013-05-06 23:15:00,
2013-05-06 16:20:00,62.0,47.5,29.84,WSW,248,0.0,2.0,59,0.00,,,0.00,LWC V2.11 B50,2013-05-06 23:20:00,
2013-05-06 16:25:00,59.7,48.3,29.86,West,270,0.0,2.0,66,0.00,,,0.00,WeatherCatV1.15B25,2013-05-06 23:25:00,
2013-05-06 16:30:00,62.0,47.5,29.84,WSW,248,0.0,2.0,59,0.00,,,0.00,LWC V2.11 B50,2013-05-06 23:30:00,
2013-05-06 16:35:00,59.7,48.3,29.86,West,270,0.0,2.0,66,0.00,,,0.00,WeatherCatV1.15B25,2013-05-06 23:35:00,
2013-05-06 16:40:00,62.0,47.5,29.84,WSW,248,0.0,2.0,59,0.00,,,0.00,LWC V2.11 B50,2013-05-06 23:40:00,
2013-05-06 16:45:00,60.3,47.6,29.86,West,270,1.0,3.0,63,0.00,,,0.00,WeatherCatV1.15B25,2013-05-06 23:45:00,
2013-05-06 16:50:00,62.0,47.5,29.84,WSW,248,0.0,2.0,59,0.00,,,0.00,LWC V2.11 B50,2013-05-06 23:50:00,
2013-05-06 16:55:00,60.3,47.6,29.86,West,270,1.0,3.0,63,0.00,,,0.00,WeatherCatV1.15B25,2013-05-06 23:55:00,
2013-05-06 17:00:00,62.5,48.0,29.83,ESE,115,0.0,0.0,59,0.00,,,0.48,LWC V2.11 B50,2013-05-07 00:00:00,
2013-05-06 17:05:00,62.6,49.0,29.83,NE,35,0.0,1.0,61,0.00,,,0.48,LWC V2.11 B50,2013-05-07 00:05:00,
2013-05-06 17:10:00,62.4,48.8,29.83,SE,124,0.0,0.0,61,0.00,,,0.48,LWC V2.11 B50,2013-05-07 00:10:00,
2013-05-06 17:15:00,62.6,49.4,29.83,SE,124,0.0,0.0,62,0.00,,,0.48,LWC V2.11 B50,2013-05-07 00:15:00,
2013-05-06 17:20:00,63.0,49.8,29.83,SE,128,0.0,0.0,62,0.00,,,0.48,LWC V2.11 B50,2013-05-07 00:20:00,
2013-05-06 17:25:00,63.1,49.9,29.83,SE,127,0.0,0.0,62,0.00,,,0.48,LWC V2.11 B50,2013-05-07 00:25:00,
2013-05-06 17:30:00,62.9,49.2,29.83,WSW,248,0.0,0.0,61,0.00,,,0.48,LWC V2.11 B50,2013-05-07 00:30:00,
2013-05-06 17:35:00,62.8,50.0,29.83,WSW,240,0.0,0.0,63,0.00,,,0.48,LWC V2.11 B50,2013-05-07 00:35:00,
2013-05-06 17:40:00,62.6,48.1,29.83,NE,54,0.0,0.0,59,0.00,,,0.48,LWC V2.11 B50,2013-05-07 00:40:00,
2013-05-06 17:45:00,62.7,48.6,29.83,NE,54,0.0,0.0,60,0.00,,,0.48,LWC V2.11 B50,2013-05-07 00:45:00,
2013-05-06 17:50:00,62.6,49.0,29.83,NE,54,0.0,0.0,61,0.00,,,0.48,LWC V2.11 B50,2013-05-07 00:50:00,
2013-05-06 17:55:00,62.8,48.7,29.83,NE,43,0.0,2.0,60,0.00,,,0.48,LWC V2.11 B50,2013-05-07 00:55:00,
2013-05-06 18:00:00,62.4,48.8,29.83,West,260,0.0,1.0,61,0.00,,,0.48,LWC V2.11 B50,2013-05-07 01:00:00,
2013-05-06 18:05:00,62.3,49.1,29.83,West,259,0.0,1.0,62,0.00,,,0.48,LWC V2.11 B50,2013-05-07 01:05:00,
2013-05-06 18:10:00,62.5,49.7,29.82,West,259,0.0,0.0,63,0.00,,,0.48,LWC V2.11 B50,2013-05-07 01:10:00,
2013-05-06 18:15:00,62.5,49.3,29.82,SSW,208,0.0,1.0,62,0.00,,,0.48,LWC V2.11 B50,2013-05-07 01:15:00,
2013-05-06 18:20:00,62.2,49.4,29.82,WNW,285,0.0,2.0,63,0.00,,,0.48,LWC V2.11 B50,2013-05-07 01:20:00,
2013-05-06 18:25:00,62.0,49.7,29.82,WNW,285,0.0,0.0,64,0.00,,,0.48,LWC V2.11 B50,2013-05-07 01:25:00,
2013-05-06 18:30:00,62.0,50.5,29.83,WNW,285,0.0,0.0,66,0.00,,,0.48,LWC V2.11 B50,2013-05-07 01:30:00,
2013-05-06 18:35:00,61.8,50.3,29.82,WNW,285,0.0,0.0,66,0.00,,,0.48,LWC V2.11 B50,2013-05-07 01:35:00,
2013-05-06 18:40:00,61.6,50.1,29.82,SSW,208,0.0,0.0,66,0.00,,,0.48,LWC V2.11 B50,2013-05-07 01:40:00,
2013-05-06 18:45:00,61.3,50.6,29.82,SSW,209,0.0,0.0,68,0.00,,,0.48,LWC V2.11 B50,2013-05-07 01:45:00,
2013-05-06 18:50:00,61.0,50.4,29.82,SSW,208,0.0,0.0,68,0.00,,,0.48,LWC V2.11 B50,2013-05-07 01:50:00,
2013-05-06 18:55:00,60.5,50.7,29.82,SSW,208,0.0,0.0,70,0.00,,,0.48,LWC V2.11 B50,2013-05-07 01:55:00,
2013-05-06 19:00:00,60.2,50.4,29.82,SSW,208,0.0,0.0,70,0.00,,,0.48,LWC V2.11 B50,2013-05-07 02:00:00,
2013-05-06 19:05:00,60.1,50.7,29.82,SSW,209,0.0,0.0,71,0.00,,,0.48,LWC V2.11 B50,2013-05-07 02:05:00,
2013-05-06 19:10:00,60.0,50.2,29.82,SW,225,0.0,1.0,70,0.00,,,0.48,LWC V2.11 B50,2013-05-07 02:10:00,
2013-05-06 19:15:00,60.0,50.6,29.82,SW,225,0.0,0.0,71,0.00,,,0.48,LWC V2.11 B50,2013-05-07 02:15:00,
2013-05-06 19:20:00,60.0,50.9,29.82,SW,225,0.0,0.0,72,0.00,,,0.48,LWC V2.11 B50,2013-05-07 02:20:00,
2013-05-06 19:25:00,59.7,50.7,29.82,WSW,252,0.0,0.0,72,0.00,,,0.48,LWC V2.11 B50,2013-05-07 02:25:00,
2013-05-06 19:30:00,59.4,51.5,29.83,West,264,0.0,1.0,75,0.00,,,0.48,LWC V2.11 B50,2013-05-07 02:30:00,
2013-05-06 19:35:00,59.1,50.1,29.83,West,270,0.0,2.0,72,0.00,,,0.48,LWC V2.11 B50,2013-05-07 02:35:00,
2013-05-06 19:40:00,58.8,50.2,29.83,West,270,0.0,0.0,73,0.00,,,0.48,LWC V2.11 B50,2013-05-07 02:40:00,
2013-05-06 19:45:00,58.6,50.3,29.83,West,270,0.0,0.0,74,0.00,,,0.48,LWC V2.11 B50,2013-05-07 02:45:00,
2013-05-06 19:50:00,58.4,49.8,29.83,West,270,0.0,0.0,73,0.00,,,0.48,LWC V2.11 B50,2013-05-07 02:50:00,
2013-05-06 19:55:00,58.2,49.2,29.84,West,270,0.0,0.0,72,0.00,,,0.48,LWC V2.11 B50,2013-05-07 02:55:00,
2013-05-06 20:00:00,58.1,49.1,29.84,West,270,0.0,0.0,72,0.00,,,0.48,LWC V2.11 B50,2013-05-07 03:00:00,
2013-05-06 20:05:00,58.0,49.8,29.84,West,270,0.0,0.0,74,0.00,,,0.48,LWC V2.11 B50,2013-05-07 03:05:00,
2013-05-06 20:10:00,57.7,48.7,29.84,West,270,0.0,0.0,72,0.00,,,0.48,LWC V2.11 B50,2013-05-07 03:10:00,
2013-05-06 20:15:00,57.5,49.3,29.84,West,270,0.0,0.0,74,0.00,,,0.48,LWC V2.11 B50,2013-05-07 03:15:00,
2013-05-06 20:20:00,57.3,49.1,29.84,West,270,0.0,0.0,74,0.00,,,0.48,LWC V2.11 B50,2013-05-07 03:20:00,
2013-05-06 20:25:00,57.2,50.4,29.85,West,270,0.0,0.0,78,0.00,,,0.48,LWC V2.11 B50,2013-05-07 03:25:00,
2013-05-06 20:30:00,57.0,49.5,29.85,West,270,0.0,0.0,76,0.00,,,0.48,LWC V2.11 B50,2013-05-07 03:30:00,
2013-05-06 20:35:00,56.8,49.3,29.85,West,270,0.0,0.0,76,0.00,,,0.48,LWC V2.11 B50,2013-05-07 03:35:00,
2013-05-06 20:40:00,56.5,49.7,29.85,West,270,0.0,1.0,78,0.00,,,0.48,LWC V2.11 B50,2013-05-07 03:40:00,
2013-05-06 20:45:00,56.4,49.6,29.85,West,270,0.0,0.0,78,0.00,,,0.48,LWC V2.11 B50,2013-05-07 03:45:00,
2013-05-06 20:50:00,62.6,48.5,29.83,NE,45,0.0,2.0,60,0.00,,,0.00,WeatherCatV1.15B25,2013-05-07 03:50:00,
2013-05-06 20:51:00,56.4,49.6,29.86,West,270,0.0,0.0,78,0.00,,,0.48,LWC V2.11 B50,2013-05-07 03:51:00,
2013-05-06 20:55:00,62.6,48.5,29.83,NE,45,0.0,2.0,60,0.00,,,0.00,WeatherCatV1.15B25,2013-05-07 03:55:00,
2013-05-06 20:56:00,56.2,50.8,29.86,West,270,0.0,0.0,82,0.00,,,0.48,LWC V2.11 B50,2013-05-07 03:56:00,
2013-05-06 21:00:00,62.6,48.5,29.83,NE,45,0.0,2.0,60,0.00,,,0.00,WeatherCatV1.15B25,2013-05-07 04:00:00,
2013-05-06 21:01:00,55.9,50.5,29.86,West,270,0.0,0.0,82,0.00,,,0.48,LWC V2.11 B50,2013-05-07 04:01:00,
2013-05-06 21:05:00,62.6,48.5,29.83,NE,45,0.0,2.0,60,0.00,,,0.00,WeatherCatV1.15B25,2013-05-07 04:05:00,
2013-05-06 21:06:00,55.8,50.7,29.86,West,270,0.0,0.0,83,0.00,,,0.48,LWC V2.11 B50,2013-05-07 04:06:00,
2013-05-06 21:10:00,62.6,48.5,29.83,NE,45,0.0,2.0,60,0.00,,,0.00,WeatherCatV1.15B25,2013-05-07 04:10:00,
2013-05-06 21:11:00,55.7,50.0,29.86,West,270,0.0,0.0,81,0.00,,,0.48,LWC V2.11 B50,2013-05-07 04:11:00,
2013-05-06 21:15:00,62.6,48.5,29.83,NE,45,0.0,2.0,60,0.00,,,0.00,WeatherCatV1.15B25,2013-05-07 04:15:00,
2013-05-06 21:16:00,55.6,49.9,29.87,West,270,0.0,0.0,81,0.00,,,0.48,LWC V2.11 B50,2013-05-07 04:16:00,
2013-05-06 21:20:00,62.6,48.5,29.83,NE,45,0.0,2.0,60,0.00,,,0.00,WeatherCatV1.15B25,2013-05-07 04:20:00,
2013-05-06 21:21:00,55.6,50.5,29.87,West,270,0.0,0.0,83,0.00,,,0.48,LWC V2.11 B50,2013-05-07 04:21:00,
2013-05-06 21:25:00,62.6,48.5,29.83,NE,45,0.0,2.0,60,0.00,,,0.00,WeatherCatV1.15B25,2013-05-07 04:25:00,
2013-05-06 21:26:00,55.4,50.6,29.87,West,270,0.0,0.0,84,0.00,,,0.48,LWC V2.11 B50,2013-05-07 04:26:00,
2013-05-06 21:30:00,62.6,48.5,29.83,NE,45,0.0,2.0,60,0.00,,,0.00,WeatherCatV1.15B25,2013-05-07 04:30:00,
2013-05-06 21:31:00,55.3,50.5,29.87,West,270,0.0,0.0,84,0.00,,,0.48,LWC V2.11 B50,2013-05-07 04:31:00,
2013-05-06 21:35:00,62.6,48.5,29.83,NE,45,0.0,2.0,60,0.00,,,0.00,WeatherCatV1.15B25,2013-05-07 04:35:00,
2013-05-06 21:36:00,55.1,51.0,29.87,West,270,0.0,0.0,86,0.00,,,0.48,LWC V2.11 B50,2013-05-07 04:36:00,
2013-05-06 21:40:00,62.6,48.5,29.83,NE,45,0.0,2.0,60,0.00,,,0.00,WeatherCatV1.15B25,2013-05-07 04:40:00,
2013-05-06 21:41:00,54.7,50.6,29.87,West,270,0.0,0.0,86,0.00,,,0.48,LWC V2.11 B50,2013-05-07 04:41:00,
2013-05-06 21:45:00,62.6,48.5,29.83,NE,45,0.0,2.0,60,0.00,,,0.00,WeatherCatV1.15B25,2013-05-07 04:45:00,
2013-05-06 21:46:00,54.3,50.5,29.88,West,270,0.0,0.0,87,0.00,,,0.48,LWC V2.11 B50,2013-05-07 04:46:00,
2013-05-06 21:50:00,60.3,50.5,29.82,WNW,292,0.0,2.0,70,0.00,,,0.00,WeatherCatV1.15B25,2013-05-07 04:50:00,
2013-05-06 21:51:00,54.2,50.4,29.88,West,270,0.0,0.0,87,0.00,,,0.48,LWC V2.11 B50,2013-05-07 04:51:00,
2013-05-06 21:55:00,60.3,50.5,29.82,WNW,292,0.0,2.0,70,0.00,,,0.00,WeatherCatV1.15B25,2013-05-07 04:55:00,
2013-05-06 21:56:00,54.0,50.5,29.88,West,270,0.0,0.0,88,0.00,,,0.48,LWC V2.11 B50,2013-05-07 04:56:00,
2013-05-06 22:00:00,60.3,50.5,29.82,WNW,292,0.0,2.0,70,0.00,,,0.00,WeatherCatV1.15B25,2013-05-07 05:00:00,
2013-05-06 22:01:00,53.6,50.1,29.88,West,270,0.0,0.0,88,0.00,,,0.48,LWC V2.11 B50,2013-05-07 05:01:00,
2013-05-06 22:05:00,60.3,50.5,29.82,WNW,292,0.0,2.0,70,0.00,,,0.00,WeatherCatV1.15B25,2013-05-07 05:05:00,
2013-05-06 22:06:00,53.5,50.0,29.89,West,270,0.0,0.0,88,0.00,,,0.48,LWC V2.11 B50,2013-05-07 05:06:00,
2013-05-06 22:10:00,60.3,50.5,29.82,WNW,292,0.0,2.0,70,0.00,,,0.00,WeatherCatV1.15B25,2013-05-07 05:10:00,
2013-05-06 22:11:00,53.6,50.1,29.89,West,270,0.0,0.0,88,0.00,,,0.48,LWC V2.11 B50,2013-05-07 05:11:00,
2013-05-06 22:15:00,60.3,50.5,29.82,WNW,292,0.0,2.0,70,0.00,,,0.00,WeatherCatV1.15B25,2013-05-07 05:15:00,
2013-05-06 22:16:00,53.7,49.9,29.89,West,270,0.0,0.0,87,0.00,,,0.48,LWC V2.11 B50,2013-05-07 05:16:00,
2013-05-06 22:20:00,53.8,50.0,29.89,West,270,0.0,0.0,87,0.00,,,0.00,LWC V2.11 B50,2013-05-07 05:20:00,
2013-05-06 22:21:00,53.8,50.0,29.90,West,270,0.0,0.0,87,0.00,,,0.48,LWC V2.11 B50,2013-05-07 05:21:00,
2013-05-06 22:25:00,60.3,50.5,29.82,WNW,292,0.0,2.0,70,0.00,,,0.00,WeatherCatV1.15B25,2013-05-07 05:25:00,
2013-05-06 22:26:00,53.7,50.2,29.90,West,270,0.0,0.0,88,0.00,,,0.48,LWC V2.11 B50,2013-05-07 05:26:00,
2013-05-06 22:30:00,53.7,50.2,29.88,West,270,0.0,0.0,88,0.00,,,0.00,LWC V2.11 B50,2013-05-07 05:30:00,
2013-05-06 22:35:00,60.3,50.5,29.82,WNW,292,0.0,2.0,70,0.00,,,0.00,WeatherCatV1.15B25,2013-05-07 05:35:00,
2013-05-06 22:40:00,53.7,50.2,29.88,West,270,0.0,0.0,88,0.00,,,0.00,LWC V2.11 B50,2013-05-07 05:40:00,
2013-05-06 22:45:00,60.3,50.5,29.82,WNW,292,0.0,2.0,70,0.00,,,0.00,WeatherCatV1.15B25,2013-05-07 05:45:00,
2013-05-06 22:50:00,53.7,50.2,29.88,West,270,0.0,0.0,88,0.00,,,0.00,LWC V2.11 B50,2013-05-07 05:50:00,
2013-05-06 22:55:00,58.1,49.1,29.84,West,270,0.0,2.0,72,0.00,,,0.00,WeatherCatV1.15B25,2013-05-07 05:55:00,
2013-05-06 23:00:00,53.1,50.3,29.91,SW,225,0.0,2.0,90,0.00,,,0.00,LWC V2.11 B50,2013-05-07 06:00:00,
2013-05-06 23:05:00,58.1,49.1,29.84,West,270,0.0,2.0,72,0.00,,,0.00,WeatherCatV1.15B25,2013-05-07 06:05:00,
2013-05-06 23:10:00,53.1,50.3,29.91,SW,225,0.0,2.0,90,0.00,,,0.00,LWC V2.11 B50,2013-05-07 06:10:00,
2013-05-06 23:15:00,58.1,49.1,29.84,West,270,0.0,2.0,72,0.00,,,0.00,WeatherCatV1.15B25,2013-05-07 06:15:00,
2013-05-06 23:20:00,53.1,50.3,29.91,SW,225,0.0,2.0,90,0.00,,,0.00,LWC V2.11 B50,2013-05-07 06:20:00,
2013-05-06 23:25:00,58.1,49.1,29.84,West,270,0.0,2.0,72,0.00,,,0.00,WeatherCatV1.15B25,2013-05-07 06:25:00,
2013-05-06 23:30:00,53.1,50.3,29.91,SW,225,0.0,2.0,90,0.00,,,0.00,LWC V2.11 B50,2013-05-07 06:30:00,
2013-05-06 23:35:00,58.1,49.1,29.84,West,270,0.0,2.0,72,0.00,,,0.00,WeatherCatV1.15B25,2013-05-07 06:35:00,
2013-05-06 23:40:00,53.1,50.3,29.91,SW,225,0.0,2.0,90,0.00,,,0.00,LWC V2.11 B50,2013-05-07 06:40:00,
2013-05-06 23:45:00,58.1,49.1,29.84,West,270,0.0,2.0,72,0.00,,,0.00,WeatherCatV1.15B25,2013-05-07 06:45:00,
2013-05-06 23:50:00,53.1,50.3,29.91,SW,225,0.0,2.0,90,0.00,,,0.00,LWC V2.11 B50,2013-05-07 06:50:00,
2013-05-06 23:55:00,56.0,50.6,29.86,West,270,0.0,1.0,82,0.00,,,0.00,WeatherCatV1.15B25,2013-05-07 06:55:00,